TimeCDT,TemperatureF,Dew PointF,Humidity,Sea Level PressureIn,VisibilityMPH,Wind Direction,Wind SpeedMPH,Gust SpeedMPH,PrecipitationIn,Events,Conditions,WindDirDegrees,DateUTC
12:53 AM,64.0,61.0,90,30.01,10.0,SSE,9.2,-,N/A,,Partly Cloudy,160,2014-04-13 05:53:00
1:53 AM,63.0,61.0,93,30.00,10.0,SSE,8.1,-,N/A,,Mostly Cloudy,150,2014-04-13 06:53:00
2:01 AM,64.0,61.0,90,30.01,10.0,SSE,8.1,-,N/A,,Mostly Cloudy,150,2014-04-13 07:01:00
2:53 AM,63.0,60.1,90,29.99,10.0,SSE,8.1,-,N/A,,Mostly Cloudy,150,2014-04-13 07:53:00
3:04 AM,64.0,60.1,87,30.00,10.0,SSE,8.1,-,N/A,,Mostly Cloudy,150,2014-04-13 08:04:00
3:53 AM,63.0,60.1,90,29.98,10.0,SSE,8.1,-,N/A,,Mostly Cloudy,160,2014-04-13 08:53:00
4:53 AM,63.0,60.1,90,29.96,10.0,SSE,6.9,-,N/A,,Overcast,150,2014-04-13 09:53:00
5:10 AM,62.1,60.1,93,29.98,9.0,SSE,5.8,-,N/A,,Mostly Cloudy,160,2014-04-13 10:10:00
5:33 AM,62.1,60.1,93,29.98,10.0,SSE,5.8,-,N/A,,Overcast,160,2014-04-13 10:33:00
5:53 AM,63.0,60.1,90,29.97,10.0,SSE,5.8,-,N/A,,Overcast,150,2014-04-13 10:53:00
6:13 AM,63.0,60.1,90,30.00,9.0,SSE,4.6,-,N/A,,Overcast,160,2014-04-13 11:13:00
6:53 AM,63.0,60.1,90,29.99,9.0,SSE,6.9,-,N/A,,Overcast,160,2014-04-13 11:53:00
7:53 AM,64.9,62.1,90,30.00,9.0,SSE,9.2,-,N/A,,Overcast,160,2014-04-13 12:53:00
8:46 AM,68.0,64.0,87,30.01,10.0,SSE,12.7,-,N/A,,Overcast,160,2014-04-13 13:46:00
8:53 AM,69.1,64.0,84,30.01,10.0,SSE,13.8,-,N/A,,Overcast,160,2014-04-13 13:53:00
9:51 AM,73.4,66.2,78,30.03,10.0,South,12.7,-,N/A,,Overcast,170,2014-04-13 14:51:00
9:53 AM,72.0,64.9,78,30.02,10.0,South,13.8,-,N/A,,Overcast,180,2014-04-13 14:53:00
10:28 AM,73.0,64.9,76,30.03,10.0,South,10.4,-,N/A,,Mostly Cloudy,180,2014-04-13 15:28:00
10:51 AM,75.2,66.2,73,30.03,10.0,South,10.4,19.6,N/A,,Mostly Cloudy,170,2014-04-13 15:51:00
10:53 AM,75.9,66.0,71,30.02,10.0,South,12.7,19.6,N/A,,Mostly Cloudy,170,2014-04-13 15:53:00
11:53 AM,79.0,64.0,60,30.01,10.0,South,18.4,25.3,N/A,,Mostly Cloudy,180,2014-04-13 16:53:00
12:53 PM,79.0,62.1,56,29.99,10.0,SSE,15.0,25.3,N/A,,Mostly Cloudy,160,2014-04-13 17:53:00
1:53 PM,80.1,60.1,50,29.95,10.0,South,20.7,26.5,N/A,,Scattered Clouds,180,2014-04-13 18:53:00
2:53 PM,81.0,59.0,47,29.93,10.0,SSE,24.2,31.1,N/A,,Partly Cloudy,160,2014-04-13 19:53:00
3:53 PM,80.1,59.0,48,29.92,10.0,SSE,17.3,-,N/A,,Clear,160,2014-04-13 20:53:00
4:53 PM,77.0,57.9,52,29.90,10.0,SSE,17.3,26.5,N/A,,Clear,160,2014-04-13 21:53:00
5:53 PM,75.0,60.1,60,29.91,10.0,SSE,16.1,21.9,N/A,,Clear,160,2014-04-13 22:53:00
7:53 PM,72.0,63.0,73,29.90,10.0,SSE,8.1,-,N/A,,Mostly Cloudy,150,2014-04-14 00:53:00
8:26 PM,72.0,63.0,73,29.91,10.0,SSE,10.4,-,N/A,,Mostly Cloudy,150,2014-04-14 01:26:00
8:53 PM,71.1,63.0,75,29.90,10.0,SE,9.2,-,N/A,,Mostly Cloudy,140,2014-04-14 01:53:00
9:53 PM,70.0,64.9,84,29.90,10.0,SSE,9.2,-,N/A,,Scattered Clouds,150,2014-04-14 02:53:00
10:15 PM,70.0,64.9,84,29.91,10.0,SSE,9.2,-,N/A,,Overcast,160,2014-04-14 03:15:00
10:53 PM,69.1,64.9,87,29.88,10.0,SSE,11.5,-,N/A,,Mostly Cloudy,150,2014-04-14 03:53:00
11:43 PM,69.1,64.9,87,29.86,10.0,SE,15.0,24.2,N/A,,Scattered Clouds,140,2014-04-14 04:43:00
11:53 PM,69.1,64.9,87,29.85,10.0,SSE,13.8,-,N/A,,Mostly Cloudy,150,2014-04-14 04:53:00